Location: Cargill Incorporated Elevator
(42.7294°N, 93.7333°W)
Time: 17:37:07
(UTC+00:00)

Cosmos 1470 Rocket - Pass Details

Date: 19 January 2026
Orbit: 598 x 625 km, 82.5° (Epoch: 17 February)

Event Time Altitude Azimuth Distance (km) Brightness Sun altitude
Rises 12:31:21 0° 187° (S) 2,837 7.1 -12.6°
Reaches altitude 10° 12:33:33 10° 187° (S) 1,936 6.2 -12.2°
Maximum altitude 12:37:50 88° 270° (W) 605 3.5 -11.5°
Drops below altitude 10° 12:42:08 10° 8° (N) 1,946 6.0 -10.7°
Sets 12:44:21 0° 8° (N) 2,853 6.9 -10.3°
